#Datum;Uhrzeit;WR;Pac;DaySum;Status;WR;Pac;DaySum;Status;Pdc1;Udc;Temp;WR;Pac;DaySum;Status;Pdc1;Udc;Temp;WR;Pac;DaySum;Status;Pdc1;Udc;Temp;WR;Pac;DaySum;Status;Pdc1;Pdc2;Udc1;Udc2;Temp;WR;Pac;DaySum;Status;Pdc1;Pdc2;Udc1;Udc2;Temp;WR;Pac;DaySum;Status;Pdc1;Udc;Temp;WR;Pac;DaySum;Status;Pdc1;Udc;Temp;WR;Pac;DaySum;Status;Pdc1;Udc;Temp
21.03.20;23:55:00;1;517;10990;0;2;0;4179;0;0;0;0;3;0;2560;0;0;0;0;4;0;3528;0;0;0;0;5;0;8892;0;0;0;0;0;0;6;0;6574;0;0;0;0;0;0;7;0;4308;0;0;0;0;8;0;4342;0;0;0;0;9;0;2300;0;0;0;0
21.03.20;23:50:00;1;583;10946;0;2;0;4179;0;0;0;0;3;0;2560;0;0;0;0;4;0;3528;0;0;0;0;5;0;8892;0;0;0;0;0;0;6;0;6574;0;0;0;0;0;0;7;0;4308;0;0;0;0;8;0;4342;0;0;0;0;9;0;2300;0;0;0;0
21.03.20;23:45:00;1;529;10898;0;2;0;4179;0;0;0;0;3;0;2560;0;0;0;0;4;0;3528;0;0;0;0;5;0;8892;0;0;0;0;0;0;6;0;6574;0;0;0;0;0;0;7;0;4308;0;0;0;0;8;0;4342;0;0;0;0;9;0;2300;0;0;0;0
21.03.20;23:40:00;1;471;10854;0;2;0;4179;0;0;0;0;3;0;2560;0;0;0;0;4;0;3528;0;0;0;0;5;0;8892;0;0;0;0;0;0;6;0;6574;0;0;0;0;0;0;7;0;4308;0;0;0;0;8;0;4342;0;0;0;0;9;0;2300;0;0;0;0
21.03.20;23:35:00;1;415;10815;0;2;0;4179;0;0;0;0;3;0;2560;0;0;0;0;4;0;3528;0;0;0;0;5;0;8892;0;0;0;0;0;0;6;0;6574;0;0;0;0;0;0;7;0;4308;0;0;0;0;8;0;4342;0;0;0;0;9;0;2300;0;0;0;0
21.03.20;23:30:00;1;410;10780;0;2;0;4179;0;0;0;0;3;0;2560;0;0;0;0;4;0;3528;0;0;0;0;5;0;8892;0;0;0;0;0;0;6;0;6574;0;0;0;0;0;0;7;0;4308;0;0;0;0;8;0;4342;0;0;0;0;9;0;2300;0;0;0;0
21.03.20;23:25:00;1;433;10746;0;2;0;4179;0;0;0;0;3;0;2560;0;0;0;0;4;0;3528;0;0;0;0;5;0;8892;0;0;0;0;0;0;6;0;6574;0;0;0;0;0;0;7;0;4308;0;0;0;0;8;0;4342;0;0;0;0;9;0;2300;0;0;0;0
21.03.20;23:20:00;1;491;10710;0;2;0;4179;0;0;0;0;3;0;2560;0;0;0;0;4;0;3528;0;0;0;0;5;0;8892;0;0;0;0;0;0;6;0;6574;0;0;0;0;0;0;7;0;4308;0;0;0;0;8;0;4342;0;0;0;0;9;0;2300;0;0;0;0
21.03.20;23:15:00;1;416;10672;0;2;0;4179;0;0;0;0;3;0;2560;0;0;0;0;4;0;3528;0;0;0;0;5;0;8892;0;0;0;0;0;0;6;0;6574;0;0;0;0;0;0;7;0;4308;0;0;0;0;8;0;4342;0;0;0;0;9;0;2300;0;0;0;0
21.03.20;23:10:00;1;414;10637;0;2;0;4179;0;0;0;0;3;0;2560;0;0;0;0;4;0;3528;0;0;0;0;5;0;8892;0;0;0;0;0;0;6;0;6574;0;0;0;0;0;0;7;0;4308;0;0;0;0;8;0;4342;0;0;0;0;9;0;2300;0;0;0;0
21.03.20;23:05:00;1;435;10602;0;2;0;4179;0;0;0;0;3;0;2560;0;0;0;0;4;0;3528;0;0;0;0;5;0;8892;0;0;0;0;0;0;6;0;6574;0;0;0;0;0;0;7;0;4308;0;0;0;0;8;0;4342;0;0;0;0;9;0;2300;0;0;0;0
21.03.20;23:00:00;1;432;10566;0;2;0;4179;0;0;0;0;3;0;2560;0;0;0;0;4;0;3528;0;0;0;0;5;0;8892;0;0;0;0;0;0;6;0;6574;0;0;0;0;0;0;7;0;4308;0;0;0;0;8;0;4342;0;0;0;0;9;0;2300;0;0;0;0
21.03.20;22:55:00;1;468;10530;0;2;0;4179;0;0;0;0;3;0;2560;0;0;0;0;4;0;3528;0;0;0;0;5;0;8892;2;0;0;0;0;0;6;0;6574;2;0;0;0;0;0;7;0;4308;0;0;0;0;8;0;4342;0;0;0;0;9;0;2300;0;0;0;0
21.03.20;22:50:00;1;493;10491;0;2;0;4179;0;0;0;0;3;0;2560;0;0;0;0;4;0;3528;0;0;0;0;5;0;8892;2;0;0;0;0;0;6;0;6574;2;0;0;0;0;0;7;0;4308;0;0;0;0;8;0;4342;0;0;0;0;9;0;2300;0;0;0;0
21.03.20;22:45:00;1;414;10450;0;2;0;4179;0;0;0;0;3;0;2560;0;0;0;0;4;0;3528;0;0;0;0;5;0;8892;2;0;0;0;0;0;6;0;6574;2;0;0;0;0;0;7;0;4308;0;0;0;0;8;0;4342;0;0;0;0;9;0;2300;0;0;0;0
21.03.20;22:40:00;1;443;10416;0;2;0;4179;0;0;0;0;3;0;2560;0;0;0;0;4;0;3528;0;0;0;0;5;0;8892;2;0;0;0;0;0;6;0;6574;2;0;0;0;0;0;7;0;4308;0;0;0;0;8;0;4342;0;0;0;0;9;0;2300;0;0;0;0
21.03.20;22:35:00;1;547;10377;0;2;0;4179;0;0;0;0;3;0;2560;0;0;0;0;4;0;3528;0;0;0;0;5;0;8892;2;0;0;0;0;0;6;0;6574;2;0;0;0;0;0;7;0;4308;0;0;0;0;8;0;4342;0;0;0;0;9;0;2300;0;0;0;0
21.03.20;22:30:00;1;495;10332;0;2;0;4179;0;0;0;0;3;0;2560;0;0;0;0;4;0;3528;0;0;0;0;5;0;8892;2;0;0;0;0;0;6;0;6574;2;0;0;0;0;0;7;0;4308;0;0;0;0;8;0;4342;0;0;0;0;9;0;2300;0;0;0;0
21.03.20;22:25:00;1;488;10291;0;2;0;4179;0;0;0;0;3;0;2560;0;0;0;0;4;0;3528;0;0;0;0;5;0;8892;2;0;0;0;0;0;6;0;6574;2;0;0;0;0;0;7;0;4308;0;0;0;0;8;0;4342;0;0;0;0;9;0;2300;0;0;0;0
21.03.20;22:20:00;1;526;10250;0;2;0;4179;0;0;0;0;3;0;2560;0;0;0;0;4;0;3528;0;0;0;0;5;0;8892;2;0;0;0;0;0;6;0;6574;2;0;0;0;0;0;7;0;4308;0;0;0;0;8;0;4342;0;0;0;0;9;0;2300;0;0;0;0
21.03.20;22:15:00;1;531;10206;0;2;0;4179;0;0;0;0;3;0;2560;0;0;0;0;4;0;3528;0;0;0;0;5;0;8892;2;0;0;0;0;0;6;0;6574;2;0;0;0;0;0;7;0;4308;0;0;0;0;8;0;4342;0;0;0;0;9;0;2300;0;0;0;0
21.03.20;22:10:00;1;560;10161;0;2;0;4179;0;0;0;0;3;0;2560;0;0;0;0;4;0;3528;0;0;0;0;5;0;8892;2;0;0;0;0;0;6;0;6574;2;0;0;0;0;0;7;0;4308;0;0;0;0;8;0;4342;0;0;0;0;9;0;2300;0;0;0;0
21.03.20;22:05:00;1;585;10115;0;2;0;4179;0;0;0;0;3;0;2560;0;0;0;0;4;0;3528;0;0;0;0;5;0;8892;2;0;0;0;0;0;6;0;6574;2;0;0;0;0;0;7;0;4308;0;0;0;0;8;0;4342;0;0;0;0;9;0;2300;0;0;0;0
21.03.20;22:00:00;1;597;10066;0;2;0;4179;0;0;0;0;3;0;2560;0;0;0;0;4;0;3528;0;0;0;0;5;0;8892;2;0;0;0;0;0;6;0;6574;2;0;0;0;0;0;7;0;4308;0;0;0;0;8;0;4342;0;0;0;0;9;0;2300;0;0;0;0
21.03.20;21:55:00;1;587;10016;0;2;0;4179;0;0;0;0;3;0;2560;0;0;0;0;4;0;3528;0;0;0;0;5;0;8892;2;0;0;0;0;0;6;0;6574;2;0;0;0;0;0;7;0;4308;0;0;0;0;8;0;4342;0;0;0;0;9;0;2300;0;0;0;0
21.03.20;21:50:00;1;616;9967;0;2;0;4179;0;0;0;0;3;0;2560;0;0;0;0;4;0;3528;0;0;0;0;5;0;8892;2;0;0;0;0;0;6;0;6574;2;0;0;0;0;0;7;0;4308;0;0;0;0;8;0;4342;0;0;0;0;9;0;2300;0;0;0;0
21.03.20;21:45:00;1;510;9917;0;2;0;4179;0;0;0;0;3;0;2560;0;0;0;0;4;0;3528;0;0;0;0;5;0;8892;2;0;0;0;0;0;6;0;6574;2;0;0;0;0;0;7;0;4308;0;0;0;0;8;0;4342;0;0;0;0;9;0;2300;0;0;0;0
21.03.20;21:40:00;1;506;9873;0;2;0;4179;0;0;0;0;3;0;2560;0;0;0;0;4;0;3528;0;0;0;0;5;0;8892;2;0;0;0;0;0;6;0;6574;2;0;0;0;0;0;7;0;4308;0;0;0;0;8;0;4342;0;0;0;0;9;0;2300;0;0;0;0
21.03.20;21:35:00;1;509;9831;0;2;0;4179;0;0;0;0;3;0;2560;0;0;0;0;4;0;3528;0;0;0;0;5;0;8892;2;0;0;0;0;0;6;0;6574;2;0;0;0;0;0;7;0;4308;0;0;0;0;8;0;4342;0;0;0;0;9;0;2300;0;0;0;0
21.03.20;21:30:00;1;493;9790;0;2;0;4179;0;0;0;0;3;0;2560;0;0;0;0;4;0;3528;0;0;0;0;5;0;8892;2;0;0;0;0;0;6;0;6574;2;0;0;0;0;0;7;0;4308;0;0;0;0;8;0;4342;0;0;0;0;9;0;2300;0;0;0;0
21.03.20;21:25:00;1;539;9748;0;2;0;4179;0;0;0;0;3;0;2560;0;0;0;0;4;0;3528;0;0;0;0;5;0;8892;2;0;0;0;0;0;6;0;6574;2;0;0;0;0;0;7;0;4308;0;0;0;0;8;0;4342;0;0;0;0;9;0;2300;0;0;0;0
21.03.20;21:20:00;1;592;9703;0;2;0;4179;0;0;0;0;3;0;2560;0;0;0;0;4;0;3528;0;0;0;0;5;0;8892;2;0;0;0;0;0;6;0;6574;2;0;0;0;0;0;7;0;4308;0;0;0;0;8;0;4342;0;0;0;0;9;0;2300;0;0;0;0
21.03.20;21:15:00;1;553;9654;0;2;0;4179;0;0;0;0;3;0;2560;0;0;0;0;4;0;3528;0;0;0;0;5;0;8892;2;0;0;0;0;0;6;0;6574;2;0;0;0;0;0;7;0;4308;0;0;0;0;8;0;4342;0;0;0;0;9;0;2300;0;0;0;0
21.03.20;21:10:00;1;560;9608;0;2;0;4179;0;0;0;0;3;0;2560;0;0;0;0;4;0;3528;0;0;0;0;5;0;8892;2;0;0;0;0;0;6;0;6574;2;0;0;0;0;0;7;0;4308;0;0;0;0;8;0;4342;0;0;0;0;9;0;2300;0;0;0;0
21.03.20;21:05:00;1;498;9562;0;2;0;4179;0;0;0;0;3;0;2560;0;0;0;0;4;0;3528;0;0;0;0;5;0;8892;2;0;0;0;0;0;6;0;6574;2;0;0;0;0;0;7;0;4308;0;0;0;0;8;0;4342;0;0;0;0;9;0;2300;0;0;0;0
21.03.20;21:00:00;1;452;9520;0;2;0;4179;0;0;0;0;3;0;2560;0;0;0;0;4;0;3528;0;0;0;0;5;0;8892;2;0;0;0;0;0;6;0;6574;2;0;0;0;0;0;7;0;4308;0;0;0;0;8;0;4342;0;0;0;0;9;0;2300;0;0;0;0
21.03.20;20:55:00;1;485;9482;0;2;0;4179;0;0;0;0;3;0;2560;0;0;0;0;4;0;3528;0;0;0;0;5;0;8892;2;0;0;0;0;0;6;0;6574;2;0;0;0;0;0;7;0;4308;0;0;0;0;8;0;4342;0;0;0;0;9;0;2300;0;0;0;0
21.03.20;20:50:00;1;558;9442;0;2;0;4179;0;0;0;0;3;0;2560;0;0;0;0;4;0;3528;0;0;0;0;5;0;8892;2;0;0;0;0;0;6;0;6574;2;0;0;0;0;0;7;0;4308;0;0;0;0;8;0;4342;0;0;0;0;9;0;2300;0;0;0;0
21.03.20;20:45:00;1;458;9402;0;2;0;4179;0;0;0;0;3;0;2560;0;0;0;0;4;0;3528;0;0;0;0;5;0;8892;2;0;0;0;0;0;6;0;6574;2;0;0;0;0;0;7;0;4308;0;0;0;0;8;0;4342;0;0;0;0;9;0;2300;0;0;0;0
21.03.20;20:40:00;1;456;9363;0;2;0;4179;0;0;0;0;3;0;2560;0;0;0;0;4;0;3528;0;0;0;0;5;0;8892;2;0;0;0;0;0;6;0;6574;2;0;0;0;0;0;7;0;4308;0;0;0;0;8;0;4342;0;0;0;0;9;0;2300;0;0;0;0
21.03.20;20:35:00;1;461;9325;0;2;0;4179;0;0;0;0;3;0;2560;0;0;0;0;4;0;3528;0;0;0;0;5;0;8892;2;0;0;0;0;0;6;0;6574;2;0;0;0;0;0;7;0;4308;0;0;0;0;8;0;4342;0;0;0;0;9;0;2300;0;0;0;0
21.03.20;20:30:00;1;494;9287;0;2;0;4179;0;0;0;0;3;0;2560;0;0;0;0;4;0;3528;0;0;0;0;5;0;8892;2;0;0;0;0;0;6;0;6574;2;0;0;0;0;0;7;0;4308;0;0;0;0;8;0;4342;0;0;0;0;9;0;2300;0;0;0;0
21.03.20;20:25:00;1;578;9245;0;2;0;4179;0;0;0;0;3;0;2560;0;0;0;0;4;0;3528;0;0;0;0;5;0;8892;2;0;0;0;0;0;6;0;6574;2;0;0;0;0;0;7;0;4308;0;0;0;0;8;0;4342;0;0;0;0;9;0;2300;0;0;0;0
21.03.20;20:20:00;1;491;9196;0;2;0;4179;0;0;0;0;3;0;2560;0;0;0;0;4;0;3528;0;0;0;0;5;0;8892;2;0;0;0;0;0;6;0;6574;2;0;0;0;0;0;7;0;4308;0;0;0;0;8;0;4342;0;0;0;0;9;0;2300;0;0;0;0
21.03.20;20:15:00;1;418;9155;0;2;0;4179;0;0;0;0;3;0;2560;0;0;0;0;4;0;3528;0;0;0;0;5;0;8892;2;0;0;0;0;0;6;0;6574;2;0;0;0;0;0;7;0;4308;0;0;0;0;8;0;4342;0;0;0;0;9;0;2300;0;0;0;0
21.03.20;20:10:00;1;405;9120;0;2;0;4179;0;0;0;0;3;0;2560;0;0;0;0;4;0;3528;0;0;0;0;5;0;8892;2;0;0;0;0;0;6;0;6574;2;0;0;0;0;0;7;0;4308;0;0;0;0;8;0;4342;0;0;0;0;9;0;2300;0;0;0;0
21.03.20;20:05:00;1;415;9086;0;2;0;4179;0;0;0;0;3;0;2560;0;0;0;0;4;0;3528;0;0;0;0;5;0;8892;2;0;0;0;0;0;6;0;6574;2;0;0;0;0;0;7;0;4308;0;0;0;0;8;0;4342;0;0;0;0;9;0;2300;0;0;0;0
21.03.20;20:00:00;1;420;9051;0;2;0;4179;0;0;0;0;3;0;2560;0;0;0;0;4;0;3528;0;0;0;0;5;0;8892;2;0;0;0;0;0;6;0;6574;2;0;0;0;0;0;7;0;4308;0;0;0;0;8;0;4342;0;0;0;0;9;0;2300;0;0;0;0
21.03.20;19:55:00;1;462;9016;0;2;0;4179;0;0;0;0;3;0;2560;0;0;0;0;4;0;3528;0;0;0;0;5;0;8892;2;0;0;0;0;0;6;0;6574;2;0;0;0;0;0;7;0;4308;0;0;0;0;8;0;4342;0;0;0;0;9;0;2300;0;0;0;0
21.03.20;19:50:00;1;2031;8978;0;2;0;4179;0;0;0;0;3;0;2560;0;0;0;0;4;0;3528;0;0;0;0;5;0;8892;2;0;0;0;0;0;6;0;6574;2;0;0;0;0;0;7;0;4308;0;0;0;0;8;0;4342;0;0;0;0;9;0;2300;0;0;0;0
21.03.20;19:45:00;1;1468;8851;0;2;0;4179;0;0;0;0;3;0;2560;0;0;0;0;4;0;3528;0;0;0;0;5;0;8892;2;0;0;0;0;0;6;0;6574;2;0;0;0;0;0;7;0;4308;0;0;0;0;8;0;4342;0;0;0;0;9;0;2300;0;0;0;0
21.03.20;19:40:00;1;1426;8728;0;2;0;4179;0;0;0;0;3;0;2560;0;0;0;0;4;0;3528;0;0;0;0;5;0;8892;2;0;0;0;0;0;6;0;6574;2;0;0;0;0;0;7;0;4308;0;0;0;0;8;0;4342;0;0;0;0;9;0;2300;0;0;0;0
21.03.20;19:35:00;1;2362;8604;0;2;0;4179;0;0;0;0;3;0;2560;0;0;0;0;4;0;3528;0;0;0;0;5;0;8892;2;0;0;0;0;0;6;0;6574;2;0;0;0;0;0;7;0;4308;0;0;0;0;8;0;4342;0;0;0;0;9;0;2300;0;0;0;0
21.03.20;19:30:00;1;1194;8403;0;2;0;4179;0;0;0;0;3;0;2560;0;0;0;0;4;0;3528;0;0;0;0;5;0;8892;2;0;0;0;0;0;6;0;6574;2;0;0;0;0;0;7;0;4308;0;0;0;0;8;0;4342;0;0;0;0;9;0;2300;0;0;0;0
21.03.20;19:25:00;1;401;8340;0;2;0;4179;0;0;0;0;3;0;2560;0;0;0;0;4;0;3528;0;0;0;0;5;0;8892;2;0;0;0;0;0;6;0;6574;2;0;0;0;0;0;7;0;4308;0;0;0;0;8;0;4342;0;0;0;0;9;0;2300;0;0;0;0
21.03.20;19:20:00;1;412;8308;0;2;0;4179;0;0;0;0;3;0;2560;0;0;0;0;4;0;3528;0;0;0;0;5;0;8892;2;0;0;0;0;0;6;0;6574;2;0;0;0;0;0;7;0;4308;0;0;0;0;8;0;4342;0;0;0;0;9;0;2300;0;0;0;0
21.03.20;19:15:00;1;332;8272;0;2;0;4179;0;0;0;0;3;0;2560;0;0;0;0;4;0;3528;0;0;0;0;5;0;8892;2;0;0;0;0;0;6;0;6574;2;0;0;0;0;0;7;0;4308;0;0;0;0;8;0;4342;0;0;0;0;9;0;2300;0;0;0;0
21.03.20;19:10:00;1;320;8246;0;2;0;4179;0;0;0;0;3;0;2560;0;0;0;0;4;0;3528;0;0;0;0;5;0;8892;2;0;0;0;0;0;6;0;6574;2;0;0;0;0;0;7;0;4308;0;0;0;0;8;0;4342;0;0;0;0;9;0;2300;0;0;0;0
21.03.20;19:05:00;1;320;8219;0;2;0;4179;0;0;0;0;3;0;2560;0;0;0;0;4;0;3528;0;0;0;0;5;0;8892;2;0;0;0;0;0;6;0;6574;2;0;0;0;0;0;7;0;4308;0;0;0;0;8;0;4342;0;0;0;0;9;0;2300;0;0;0;0
21.03.20;19:00:00;1;319;8192;0;2;0;4179;0;0;0;0;3;0;2560;0;0;0;0;4;0;3528;0;0;0;0;5;0;8892;2;0;0;0;0;0;6;0;6574;2;0;0;0;0;0;7;0;4308;0;0;0;0;8;0;4342;0;0;0;0;9;0;2300;0;0;0;0
21.03.20;18:55:00;1;359;8165;0;2;0;4179;0;0;0;0;3;0;2560;0;0;0;0;4;0;3528;0;0;0;0;5;0;8892;2;0;0;0;0;0;6;0;6574;2;0;0;0;0;0;7;0;4308;0;0;0;0;8;0;4342;0;0;0;0;9;0;2300;0;0;0;0
21.03.20;18:50:00;1;353;8135;0;2;0;4179;0;0;0;0;3;0;2560;0;0;0;0;4;0;3528;0;0;0;0;5;0;8892;2;0;0;0;0;0;6;0;6574;2;0;0;0;0;0;7;0;4308;0;0;0;0;8;0;4342;0;0;0;0;9;0;2300;0;0;0;0
21.03.20;18:45:00;1;362;8105;0;2;0;4179;0;0;0;0;3;0;2560;0;0;0;0;4;0;3528;0;0;0;0;5;0;8892;2;0;0;0;0;0;6;0;6574;2;0;0;0;0;0;7;0;4308;0;0;0;0;8;0;4342;0;0;0;0;9;0;2300;0;0;0;0
21.03.20;18:40:00;1;363;8075;0;2;0;4179;0;0;0;0;3;0;2560;0;0;0;0;4;0;3528;0;0;0;0;5;0;8892;2;0;0;0;0;0;6;0;6574;2;0;0;0;0;0;7;0;4308;0;0;0;0;8;0;4342;0;0;0;0;9;0;2300;0;0;0;0
21.03.20;18:35:00;1;356;8044;0;2;0;4179;0;0;0;0;3;0;2560;0;0;112;8;4;0;3528;0;0;0;0;5;0;8892;2;0;0;0;0;0;6;0;6574;2;0;0;0;0;0;7;0;4308;0;0;0;0;8;0;4342;0;0;0;0;9;0;2300;0;0;0;0
21.03.20;18:30:00;1;319;8015;0;2;0;4179;6;0;267;16;3;0;2560;6;0;296;19;4;0;3528;0;0;0;0;5;0;8892;2;0;0;0;0;0;6;0;6574;2;0;0;0;0;0;7;0;4308;0;0;0;0;8;0;4342;0;0;0;0;9;0;2300;0;0;0;0
21.03.20;18:25:00;1;415;7988;0;2;0;4179;6;0;298;16;3;0;2560;6;0;330;19;4;0;3528;0;0;30;5;5;0;8892;2;0;0;0;0;0;6;0;6574;2;0;0;0;0;0;7;0;4308;0;0;0;0;8;0;4342;0;0;0;0;9;0;2300;0;0;0;0
21.03.20;18:20:00;1;380;7953;0;2;0;4179;6;0;324;16;3;0;2560;6;0;389;19;4;0;3528;2;0;90;13;5;0;8892;2;0;1;200;198;19;6;0;6574;2;2;1;71;118;10;7;0;4308;0;0;0;0;8;0;4342;0;0;0;0;9;0;2300;0;0;0;0
21.03.20;18:15:00;1;366;7923;0;2;0;4179;6;0;357;16;3;0;2560;6;1;424;19;4;0;3528;1;0;132;13;5;0;8892;23;0;2;387;397;25;6;0;6574;23;6;4;202;498;23;7;0;4308;0;0;230;15;8;0;4342;0;0;234;15;9;0;2300;6;0;293;14
21.03.20;18:10:00;1;380;7892;0;2;0;4179;6;0;381;16;3;0;2560;6;2;456;19;4;0;3528;1;0;173;13;5;0;8892;23;0;2;412;569;25;6;0;6574;23;5;3;181;548;24;7;0;4308;6;0;344;18;8;0;4342;6;0;350;18;9;0;2300;6;0;219;8
21.03.20;18:05:00;1;414;7861;0;2;0;4179;6;0;397;17;3;0;2560;4;2;465;20;4;0;3528;1;0;207;14;5;5;8892;1;0;4;420;666;25;6;0;6574;23;4;3;182;573;24;7;0;4308;6;0;396;18;8;0;4342;6;0;343;15;9;0;2300;6;1;412;14
21.03.20;18:00:00;1;486;7826;0;2;0;4179;6;0;408;17;3;3;2560;3;9;466;20;4;0;3528;1;0;218;14;5;57;8891;1;5;19;381;603;26;6;0;6574;23;3;4;437;586;25;7;0;4308;3;2;407;18;8;0;4342;3;2;412;18;9;0;2300;6;0;392;11
21.03.20;17:55:00;1;540;7785;0;2;0;4179;6;0;416;17;3;0;2560;6;5;505;20;4;0;3528;3;0;199;15;5;92;8885;4;19;29;368;582;27;6;47;6574;1;18;25;492;468;26;7;1;4308;6;2;446;19;8;2;4342;6;2;449;18;9;0;2300;6;2;494;14
21.03.20;17:50:00;1;459;7739;0;2;3;4179;3;8;412;17;3;1;2560;6;6;515;20;4;0;3528;3;0;199;15;5;112;8877;4;35;40;368;583;27;6;74;6569;4;40;48;462;438;26;7;2;4308;6;5;463;19;8;1;4342;6;5;466;18;9;2;2300;6;4;513;15
21.03.20;17:45:00;1;342;7700;0;2;7;4179;6;11;414;18;3;2;2560;6;8;523;20;4;4;3528;3;5;199;15;5;134;8868;4;43;51;368;583;27;6;85;6563;4;46;52;462;438;26;7;3;4308;6;8;373;15;8;6;4342;6;17;447;19;9;1;2300;3;9;494;15
21.03.20;17:40:00;1;288;7672;0;2;5;4178;6;10;414;18;3;2;2560;6;8;519;20;4;0;3527;3;0;199;15;5;126;8856;4;41;47;368;583;27;6;81;6555;4;34;41;462;438;26;7;1;4307;6;8;470;19;8;3;4342;6;7;472;19;9;0;2300;6;4;520;15
21.03.20;17:35:00;1;306;7648;0;2;33;4178;6;49;382;18;3;1;2559;4;6;527;21;4;6;3527;3;7;199;15;5;145;8846;4;48;54;368;583;27;6;92;6549;4;45;51;462;438;26;7;0;4307;6;0;496;20;8;2;4341;6;7;399;15;9;3;2300;6;10;506;15
21.03.20;17:30:00;1;323;7622;0;2;72;4175;4;99;371;19;3;13;2559;3;24;506;21;4;37;3527;3;39;198;15;5;203;8834;4;86;82;368;583;27;6;130;6541;4;58;68;461;438;26;7;57;4307;4;71;352;20;8;46;4341;0;59;286;15;9;5;2300;6;10;542;15
21.03.20;17:25:00;1;284;7597;0;2;92;4169;4;120;368;19;3;25;2558;6;40;527;21;4;45;3524;3;47;198;15;5;233;8817;4;101;98;368;583;27;6;152;6530;4;64;72;462;438;26;7;47;4303;4;73;340;16;8;59;4338;4;94;415;20;9;4;2299;6;8;548;15
21.03.20;17:20:00;1;233;7572;0;2;138;4162;4;167;379;19;3;76;2556;4;110;453;22;4;89;3521;3;92;205;15;5;333;8797;4;155;140;368;582;27;6;216;6517;4;95;100;462;438;26;7;80;4298;4;107;364;16;8;64;4333;4;83;253;12;9;10;2299;6;15;442;12
21.03.20;17:15:00;1;233;7553;0;2;159;4151;4;187;376;19;3;85;2550;4;124;507;22;4;111;3513;5;116;225;15;5;353;8769;4;167;151;368;583;27;6;236;6498;4;133;145;462;438;26;7;37;4290;4;52;155;6;8;46;4322;0;56;149;6;9;71;2298;4;96;447;16
21.03.20;17:10:00;1;241;7533;0;2;163;4137;4;194;384;19;3;88;2543;4;129;507;22;4;119;3504;5;124;223;15;5;362;8740;4;175;155;368;582;27;6;246;6479;4;113;121;462;438;26;7;149;4281;4;171;459;20;8;83;4308;0;105;277;12;9;77;2292;4;105;481;16
21.03.20;17:05:00;1;275;7513;0;2;155;4124;4;187;390;19;3;89;2535;4;126;490;22;4;113;3494;5;118;222;15;5;354;8709;4;168;157;368;582;27;6;235;6458;4;125;135;462;438;26;7;138;4268;4;173;459;20;8;141;4301;4;176;464;20;9;74;2286;4;101;494;16
21.03.20;17:00:00;1;275;7490;0;2;153;4111;4;184;387;19;3;89;2528;4;124;485;22;4;105;3484;5;109;225;15;5;352;8680;4;168;154;368;583;27;6;234;6439;4;125;135;461;438;26;7;118;4257;4;138;369;16;8;138;4290;4;172;466;20;9;57;2280;4;80;394;12
21.03.20;16:55:00;1;339;7467;0;2;173;4098;4;206;380;19;3;99;2520;4;135;509;22;4;131;3476;5;136;229;16;5;387;8650;4;186;170;368;582;27;6;258;6419;4;122;131;461;438;26;7;99;4245;4;120;322;13;8;151;4278;4;188;476;20;9;84;2274;4;114;501;16
21.03.20;16:50:00;1;264;7438;0;2;165;4084;4;197;381;20;3;94;2512;4;129;514;22;4;114;3465;5;118;225;16;5;363;8618;4;174;155;368;582;27;6;242;6397;4;123;133;461;438;26;7;115;4231;0;139;367;16;8;142;4266;4;176;477;20;9;78;2267;4;107;483;16
21.03.20;16:45:00;1;238;7416;0;2;158;4070;4;189;387;20;3;91;2504;4;127;476;22;4;108;3455;5;112;225;16;5;348;8588;4;162;148;368;583;27;6;231;6377;4;116;125;461;438;26;7;95;4222;4;111;298;13;8;140;4254;4;173;448;20;9;49;2258;0;65;306;11
21.03.20;16:40:00;1;232;7396;0;2;176;4057;4;210;389;20;3;105;2497;4;141;506;22;4;127;3446;5;132;227;16;5;396;8559;4;193;167;397;582;27;6;257;6358;4;124;134;461;441;26;7;155;4210;4;185;396;20;8;30;4242;4;36;85;4;9;87;2254;4;111;464;17
21.03.20;16:35:00;1;262;7375;0;2;200;4042;4;233;385;20;3;111;2488;4;154;520;22;4;150;3436;5;156;229;16;5;448;8526;4;216;191;399;604;27;6;329;6336;4;145;173;518;553;26;7;185;4197;4;216;410;20;8;155;4225;0;180;342;16;9;101;2247;4;127;486;17
21.03.20;16:30:00;1;296;7353;0;2;243;4025;4;276;392;20;3;143;2479;4;184;512;22;4;190;3423;5;197;232;16;5;537;8488;4;265;232;408;628;27;6;402;6308;4;207;223;576;565;26;7;224;4182;4;266;443;20;8;227;4214;4;264;458;20;9;121;2239;4;150;523;17
21.03.20;16:25:00;1;414;7328;0;2;261;4005;4;293;388;20;3;158;2467;4;198;497;22;4;210;3408;5;218;233;16;5;571;8443;4;284;248;406;627;27;6;428;6274;4;200;216;568;565;26;7;268;4163;4;297;467;20;8;258;4195;4;303;469;20;9;137;2228;4;168;523;17
21.03.20;16:20:00;1;301;7297;0;2;274;3984;4;308;394;20;3;164;2453;4;203;482;22;4;220;3390;5;229;234;16;5;591;8395;4;287;250;402;624;27;6;449;6238;4;216;226;581;562;26;7;272;4140;4;310;462;20;8;272;4174;4;309;480;20;9;117;2217;4;139;399;13
21.03.20;16:15:00;1;380;7271;0;2;312;3961;4;349;396;21;3;191;2440;4;232;499;23;4;255;3372;5;265;236;16;5;675;8345;4;327;288;407;671;27;6;505;6200;4;238;251;587;568;26;7;301;4118;4;345;475;20;8;313;4151;4;349;469;20;9;110;2205;4;131;346;11
21.03.20;16:10:00;1;356;7240;0;2;324;3935;4;362;392;21;3;198;2424;4;237;490;23;4;268;3351;5;280;237;17;5;693;8289;4;344;295;417;655;27;6;522;6158;4;258;270;584;571;27;7;324;4093;4;364;473;21;8;330;4125;4;365;479;20;9;106;2185;0;127;315;10
21.03.20;16:05:00;1;464;7210;0;2;332;3908;4;371;405;21;3;206;2407;4;246;506;23;4;279;3328;5;291;237;17;5;712;8231;4;352;308;414;657;27;6;537;6114;4;271;278;586;571;27;7;336;4066;4;378;465;21;8;341;4098;4;376;474;20;9;184;2176;4;214;520;17
21.03.20;16:00:00;1;319;7176;0;2;356;3880;4;396;405;21;3;217;2390;4;261;525;23;4;298;3305;5;310;238;17;5;744;8171;4;371;323;419;661;27;6;564;6070;4;295;303;583;575;27;7;344;4038;4;399;487;21;8;295;4062;0;326;377;16;9;195;2161;4;228;534;17
21.03.20;15:55:00;1;323;7149;0;2;362;3851;4;399;406;21;3;227;2372;4;266;512;23;4;305;3280;5;317;236;17;5;770;8108;4;381;331;415;681;27;6;580;6023;4;311;323;588;571;27;7;355;4009;4;406;489;21;8;367;4039;4;408;476;20;9;100;2144;4;117;266;9
21.03.20;15:50:00;1;351;7122;0;2;358;3820;4;399;403;21;3;222;2353;4;263;501;23;4;301;3255;5;313;238;17;5;770;8044;4;386;329;413;681;27;6;574;5975;4;269;286;581;570;27;7;362;3980;4;398;489;21;8;293;4008;4;330;381;16;9;158;2128;4;184;421;14
21.03.20;15:45:00;1;364;7093;0;2;369;3790;4;412;399;21;3;230;2335;4;273;512;23;4;310;3230;5;323;241;17;5;794;7980;4;391;337;407;668;27;6;586;5927;4;280;297;580;578;27;7;293;3949;4;333;386;16;8;376;3978;4;421;468;20;9;205;2111;4;238;517;18
21.03.20;15:40:00;1;499;7062;0;2;390;3760;4;434;404;21;3;243;2316;4;286;517;23;4;330;3204;5;344;238;17;5;834;7914;4;415;357;416;687;27;6;622;5877;4;317;326;590;568;27;7;323;3919;4;350;357;16;8;400;3947;4;445;447;20;9;218;2095;4;251;517;18
21.03.20;15:35:00;1;488;7021;0;2;403;3727;4;443;402;22;3;248;2295;4;293;512;23;4;342;3176;5;356;237;17;5;869;7844;4;429;371;423;684;28;6;646;5825;4;321;328;597;572;27;7;427;3886;4;472;471;21;8;424;3914;4;468;450;21;9;232;2076;4;265;529;18
21.03.20;15:30:00;1;511;6980;0;2;432;3694;4;475;403;22;3;265;2275;4;312;522;24;4;366;3148;5;381;242;17;5;910;7772;4;457;390;423;681;28;6;684;5771;4;381;398;584;573;27;7;448;3850;4;487;467;21;8;349;3878;4;378;355;16;9;239;2057;4;276;512;18
21.03.20;15:25:00;1;522;6937;0;2;488;3658;4;532;402;22;3;304;2252;4;350;522;24;4;420;3117;5;437;241;18;5;1033;7695;4;519;443;421;678;28;6;771;5714;4;377;379;599;572;27;7;505;3812;4;544;475;21;8;423;3835;0;464;404;17;9;271;2037;4;308;527;18
21.03.20;15:20:00;1;475;6894;0;2;535;3617;4;580;408;22;3;332;2227;4;383;526;24;4;459;3082;5;478;241;18;5;1126;7608;4;568;485;424;696;28;6;839;5649;4;395;407;602;583;27;7;556;3770;4;594;495;21;8;450;3801;4;482;385;16;9;300;2014;4;340;536;19
21.03.20;15:15:00;1;477;6854;0;2;577;3572;4;623;403;22;3;361;2199;4;413;520;24;4;499;3044;5;520;244;18;5;1190;7514;4;612;517;428;703;28;6;903;5578;4;469;473;601;578;27;7;606;3724;4;647;487;21;8;608;3753;4;656;487;21;9;325;1989;4;364;526;19
21.03.20;15:10:00;1;459;6814;0;2;629;3524;4;676;411;22;3;394;2169;4;446;525;24;4;546;3002;5;569;244;18;5;1295;7414;4;665;562;429;704;28;6;982;5503;4;490;491;605;581;27;7;656;3673;4;711;494;21;8;397;3703;4;426;291;12;9;358;1962;4;400;531;19
21.03.20;15:05:00;1;465;6775;0;2;612;3472;4;659;410;22;3;387;2137;4;435;517;24;4;534;2957;5;557;243;18;5;1272;7305;4;650;549;431;704;28;6;965;5420;4;511;511;601;581;27;7;559;3619;4;600;407;17;8;558;3637;0;597;403;17;9;362;1932;4;404;535;19
21.03.20;15:00:00;1;446;6737;0;2;558;3421;4;602;401;22;3;347;2104;4;396;525;24;4;480;2913;5;500;240;18;5;1151;7200;4;586;500;429;698;28;6;872;5341;4;425;425;603;585;27;7;588;3563;4;637;479;21;8;594;3592;4;649;483;21;9;322;1903;4;358;536;19
21.03.20;14:55:00;1;470;6699;0;2;577;3374;4;623;408;22;3;358;2075;4;410;520;24;4;494;2872;5;514;241;18;5;1186;7105;4;594;508;426;689;28;6;887;5269;4;448;459;598;582;27;7;497;3514;4;535;407;17;8;509;3541;4;545;409;17;9;109;1875;4;122;177;6
21.03.20;14:50:00;1;430;6660;0;2;583;3326;4;632;411;23;3;365;2046;4;412;506;24;4;501;2831;5;522;243;18;5;1201;7006;4;613;518;424;706;28;6;901;5195;4;479;496;602;581;27;7;378;3445;0;402;285;12;8;499;3490;4;542;394;16;9;135;1838;0;150;219;7
21.03.20;14:45:00;1;431;6624;0;2;622;3278;4;668;410;23;3;390;2015;4;438;521;24;4;534;2790;5;556;243;18;5;1259;6906;4;635;547;424;687;28;6;954;5120;4;452;457;595;583;27;7;647;3412;4;696;485;21;8;647;3438;4;696;497;21;9;286;1820;4;323;456;15
21.03.20;14:40:00;1;434;6588;0;2;664;3226;4;713;415;23;3;417;1983;4;468;525;24;4;575;2745;5;599;241;18;5;1346;6800;4;687;580;423;700;28;6;1018;5040;4;505;510;605;582;27;7;712;3359;4;750;494;21;8;705;3385;4;754;489;21;9;381;1792;4;423;531;19
21.03.20;14:35:00;1;508;6551;0;2;760;3171;4;811;409;23;3;476;1948;4;529;520;24;4;661;2697;5;689;246;18;5;1560;6686;4;800;676;430;701;28;6;1170;4954;4;605;608;611;579;27;7;809;3299;4;859;485;21;8;660;3325;4;701;403;17;9;435;1760;4;481;534;19
21.03.20;14:30:00;1;552;6510;0;2;883;3108;4;939;419;23;3;557;1908;4;612;531;24;4;780;2642;5;813;248;18;5;1802;6555;4;940;788;436;713;28;6;1363;4855;4;682;672;612;578;27;7;981;3232;4;1035;489;21;8;598;3229;0;631;297;12;9;531;1723;4;583;534;19
21.03.20;14:25:00;1;651;6463;0;2;816;3035;4;870;415;23;3;515;1862;4;566;520;24;4;713;2577;5;743;248;18;5;1661;6406;4;869;721;435;708;28;6;1253;4742;4;628;625;609;590;27;7;585;3151;4;619;323;14;8;882;3181;4;941;486;21;9;77;1642;0;85;92;3
21.03.20;14:20:00;1;644;6409;0;2;825;2966;4;879;413;23;3;522;1819;4;576;522;24;4;721;2518;5;751;244;18;5;1678;6267;4;865;733;434;706;28;6;1272;4637;4;662;660;609;585;27;7;873;3076;4;925;487;21;8;700;3107;4;739;389;16;9;378;1636;4;417;439;15
21.03.20;14:15:00;1;843;6355;0;2;885;2898;4;942;420;23;3;561;1776;4;617;525;24;4;780;2458;5;812;246;18;5;1796;6126;4;923;771;439;720;28;6;1366;4530;4;706;697;615;581;27;7;960;3003;4;1021;489;21;8;968;3034;4;1028;488;21;9;436;1597;4;476;453;15